Погода в Сучжоу

Китай     33°38′21″N   116°58′40″E
темп.,
°C
ветер,
м/с
пор.,
м/с
влажн.,
%
обл.,
%
осадки,
мм/ч
давл.,
гПа
погр.,
м
18 апреля, вс
вс1823:00+9св113017 0.0 102410
02:00+8ссв00310 0.0 102310
05:00+7вюв11320 0.0 102210
08:00+12вюв223582 0.0 1023170
11:00+17ююв3330100 0.0 1022827
14:00+20юв222899 0.0 10201185
17:00+19ююв344047 0.0 1018755
20:00+12ююв22512 0.0 101813
19 апреля, пн
пн1923:00+10ююв22555 0.0 101822
02:00+8ююв22581 0.0 101811
05:00+8ююв22660 0.0 101716
08:00+13ююв23560 0.0 1018230
11:00+20ююв34410 0.0 1017808
14:00+23ююв44330 0.0 10151319
17:00+22юв35430 0.0 1014481
20:00+14вюв486271 0.0 1016117
20 апреля, вт
вт2023:00+12вюв357012 0.0 101677
02:00+11вюв347695 0.0 101657
05:00+10вюв367974 0.0 1016104
08:00+15вюв5963100 0.0 1017311
11:00+17вюв595298 0.0 1017567
14:00+16в51058100 0.0 1016382
17:00+16вюв51262100 0.0 1015423
20:00+16вюв51355100 0.0 1016432
21 апреля, ср
ср2123:00+16вюв61358100 0.0 1016496
02:00+14вюв51177100 0.1 1015428
05:00+12в51092100 1.5 1015419
08:00+12в51295100 3.7 1015514
11:00+15вюв6989100 2.6 1015683
14:00+14вюв5893100 2.8 1013493
17:00+14в3697100 1.2 1013264
20:00+14всв3598100 1.5 1013185
22 апреля, чт
чт2223:00+14св2499100 1.4 1013148
02:00+14ссв2399100 2.0 1012108
05:00+14ссв259998 0.4 1011207
08:00+14с3697100 0.6 1013328
11:00+15с4591100 0.1 1013465
14:00+17ссв458295 0.1 1012698
17:00+18св3478100 0.0 1011583
20:00+14в23945 0.0 101257